Regional Weather Roundup
Issued by NWS

Current Version | Previous Version | Text Only | Print | Product List | Glossary On
Versions: 1 2 3 4 5 6 7 8 9 10 11 12 13 14 15 16 17 18 19 20 21 22 23 24 25 26 27 28 29 30 31 32 33 34 35 36 37 38 39 40 41 42 43 44 45 46 47 48 49 50
000
ASUS43 KMKX 020421
RWRWI

WISCONSIN REGIONAL WEATHER ROUNDUP
NATIONAL WEATHER SERVICE MILWAUKEE/SULLIVAN WI
1100 PM CDT MON SEP 01 2014

NOTE: "FAIR" INDICATES FEW OR NO CLOUDS BELOW 12,000 FEET WITH NO
SIGNIFICANT WEATHER AND/OR OBSTRUCTIONS TO VISIBILITY.

WIZ001-002-006>008-014>016-023>028-020500-
NORTHWEST WISCONSIN

CITY           SKY/WX    TMP DP  RH WIND       PRES   REMARKS
SUPERIOR ARPT  PTCLDY    56  53  91 SW5       29.74F
ASHLAND        PTCLDY    56  53  90 SW6       29.76S
HAYWARD        PTCLDY    55  54  96 CALM      29.79S
SIREN          PTCLDY    58  56  91 CALM      29.79S
RICE LAKE      PTCLDY    57  55  95 CALM      29.82S FOG
LADYSMITH      CLEAR     58  55  89 W3        29.81F
EAU CLAIRE     CLEAR     61  58  90 W5        29.80R
MENOMONIE      CLEAR     63  59  88 SW6       29.81R
NEW RICHMOND   CLEAR     60  58  94 CALM      29.82S
OSCEOLA        PTCLDY    58  58 100 CALM      29.83S
$$

WIZ003>005-009-010-017-018-020500-
NORTH CENTRAL WISCONSIN

CITY           SKY/WX    TMP DP  RH WIND       PRES   REMARKS
WOODRUFF       CLEAR     59  55  87 W5        29.79S
RHINELANDER    CLEAR     55  53  93 W5        29.80S
EAGLE RIVER    CLEAR     54  54 100 CALM      29.78S FOG
LAND O LAKES   CLEAR     56  54  95 CALM      29.79S
PHILLIPS       PTCLDY    57  53  87 W3        29.79F
TOMAHAWK       CLEAR     53  51  92 CALM      29.80S
MEDFORD        CLEAR     57  55  91 SW3       29.81R
MERRILL        CLEAR     56  55  94 W3        29.80S
$$

WIZ029-030-035-036-043>047-020500-
CENTRAL WISCONSIN

CITY           SKY/WX    TMP DP  RH WIND       PRES   REMARKS
WAUSAU         CLEAR     62  57  83 NW7       29.79S
MOSINEE        PTCLDY    59  55  88 W5        29.80F
MARSHFIELD     CLEAR     60  56  86 W6        29.80S
STEVENS POINT  PTCLDY    62  57  84 W3        29.81R
WAUPACA        PTCLDY    64  61  88 W3        29.80R
WAUTOMA        CLEAR     60  60 100 CALM      29.82R
WISC RAPIDS    CLEAR     59  57  93 CALM      29.81S
CAMP DOUGLAS   CLEAR     59  59 100 CALM      29.82R
$$

WIZ011>013-019>022-031-037>040-048>050-020500-
NORTHEAST WISCONSIN

CITY           SKY/WX    TMP DP  RH WIND       PRES   REMARKS
ANTIGO         CLEAR     58  54  88 NW5       29.80S
STURGEON BAY   CLEAR     66  57  72 W6        29.78R
GREEN BAY      CLEAR     63  60  90 SW5       29.78R
MANITOWOC      CLEAR     66  64  93 W3        29.79R
APPLETON       CLEAR     63  61  94 CALM      29.80R
CLINTONVILLE   CLEAR     61  55  82 W5        29.78S
OSHKOSH        CLEAR     65  63  93 SW3       29.80R
$$

WIZ032>034-041-042-053>061-020500-
SOUTHWEST WISCONSIN

CITY           SKY/WX    TMP DP  RH WIND       PRES   REMARKS
LA CROSSE      PTCLDY    65  60  84 SE6       29.81S
SPARTA         PTCLDY    58  57  96 E5        29.83R
VIROQUA        FAIR      61  61  98 W5        29.84S
BOSCOBEL       MOCLDY    65  62  90 CALM      29.84R
PRAIRIE DU CHI CLOUDY    63  61  91 CALM      29.84R
PLATTEVILLE    FAIR      67  63  89 CALM      29.85F
$$

WIZ056-057-062-063-064-067-068-020500-
SOUTH CENTRAL WISCONSIN

CITY           SKY/WX    TMP DP  RH WIND       PRES   REMARKS
BARABOO/DELLS  CLEAR     63  60  90 SW5       29.84R
LONE ROCK      PTCLDY    66  61  84 CALM      29.84R
WATERTOWN      CLEAR     62  62 100 CALM      29.83R
MADISON        PTCLDY    67  60  78 CALM      29.84R
MIDDLETON      FAIR      64  62  94 W5        29.85R
MONROE         MOCLDY    68  63  83 W8        29.86R
JANESVILLE     MOCLDY    68  64  88 CALM      29.85R
$$

WIZ051-052-058>065-066-070>072-020500-
SOUTHEAST WISCONSIN

CITY           SKY/WX    TMP DP  RH WIND       PRES   REMARKS
MILWAUKEE      PTCLDY    69  64  84 W5        29.83R
WAUKESHA       CLEAR     64  59  82 CALM      29.84S
MILWAUKEE/TIMM PTCLDY    64  59  82 W3        29.83R
RACINE         CLEAR     68  65  90 W3        29.84R
BURLINGTON     CLEAR     62  62  98 CALM      29.84R
KENOSHA        CLEAR     66  64  93 SW5       29.84R
FOND DU LAC    CLEAR     63  60  90 SW5       29.82R
SHEBOYGAN      CLEAR     62  60  93 SW6       29.81R
WEST BEND      CLEAR     63  59  88 SW3       29.83R
JUNEAU         CLEAR     62  61  97 SW3       29.84R
$$

LSZ147-162-020500-
LAKE SUPERIOR

STATION/POSITION TIME  TEMP    WIND        PRES    WAVE
                       AIR SEA DIR/SP/G            HT/PER
                 (UTC) (F)     (DEG/KT/KT) (MB)    (FT/S)
W MID LAKE BUOY  0350   61 57  250/ 10/ 12 1005.6R   1/ 4
DEVILS ISLAND    0400   62     270/ 10/ 12 1006.8R
PORT WING        0300   62     200/  7/  8 1007.5R
SAXON HARBOR     0300   61     200/  7/  8 1007.5R
$$

LMZ867-665-643>646-020500-
LAKE MICHIGAN

STATION/POSITION TIME  TEMP    WIND        PRES    WAVE
                       AIR SEA DIR/SP/G            HT/PER
                 (UTC) (F)     (DEG/KT/KT) (MB)    (FT/S)
N MID LAKE BUOY  0350   66 65  240/  4/  4 1007.0R   2/ 6
NORTHPORT PIER   0300   65     240/  3/  4 1006.8R
KEWAUNEE LAKESHO 0400   66     290/  3/  5 1007.5R
SHEBOYGAN LAKESH 0400   66 48  240/  6/  7 1009.3R
ATWATER BUOY     0400   67     270/  6/  8 1010.9R
MILWAUKEE LAKESH 0400   71     280/  6/  8   N/A
S MID LAKE BUOY  0350   71 70  240/  8/ 10 1009.5R   2/ 4
KENOSHA   LAKESH 0400   70     260/  7/  9 1010.2R
$$

TC  - TEMPERATURE IN CELSIUS
VSB - VISIBILITY IN STATUTE MILES
WCI - WIND CHILL INDEX
HX  - HEAT INDEX



USA.gov is the U.S. government's official web portal to all federal, state and local government web resources and services.